Culdrose, United Kingdom

5:06 AM BST on August 21, 2017 (GMT +0100)
Culdrose Navy

Weather History for EGDR - November, 2011

Change the Weather History Date:

Thursday, November 3, 2011

  Actual Average Record
Temperature  
Mean Temperature 56 °F -  
Max Temperature 58 °F 51 °F 59 °F (2010)
Min Temperature 53 °F 43 °F 37 °F (2006)
Degree Days  
Heating Degree Days 10    
Growing Degree Days 6 (Base 50)    
Moisture  
Dew Point 54 °F    
Average Humidity 91    
Maximum Humidity 100    
Minimum Humidity 82    
Precipitation  
Precipitation 0.04 in - - ()
Sea Level Pressure  
Sea Level Pressure 29.14 in    
Wind  
Wind Speed 15 mph ()    
Max Wind Speed 25 mph    
Max Gust Speed 38 mph    
Visibility 5.7 miles    
Events Rain    
Averages and records for this station are not official NWS values.
T = Trace of Precipitation, MM = Missing Value Source: Averaged Metar Reports

Daily Weather History Graph

Daily Weather History Graph

Search for Another Location

Airport or City:

Trip Planner

Search our weather history database for the weather conditions in past years. The results will help you decide how hot, cold, wet, or windy it might be!

Date:

Astronomy

Nov. 03, 2011 Rise Set
Actual Time 7:13 AM GMT 4:54 PM GMT
Civil Twilight 6:39 AM GMT 5:29 PM GMT
Nautical Twilight 6:00 AM GMT 6:07 PM GMT
Astronomical Twilight 5:23 AM GMT 6:45 PM GMT
Moon 1:48 PM GMT (11/3) No Moon Set
Length of Visible Light 10h 49m
Length of Day
9h 41m
First Quarter, 58% of the Moon is Illuminated
Nov 3
First Quarter
Nov 10
Full
Nov 18
Last Quarter
Nov 25
New
Dec 2
First Quarter

Hourly Weather History & Observations

Time (GMT) Temp. Dew Point Humidity Pressure Visibility Wind Dir Wind Speed Gust Speed Precip Events Conditions
12:50 AM 57.2 °F 55.4 °F 94% 29.18 in 6.2 mi South 16.1 mph 27.6 mph N/A   Mostly Cloudy
1:50 AM 57.2 °F 55.4 °F 94% 29.18 in 6.2 mi South 19.6 mph - N/A   Mostly Cloudy
2:50 AM 58 °F 55 °F 85% 29.17 in 7 mi South 16.1 mph - -   Scattered Clouds
2:50 AM 57.2 °F 55.4 °F 94% 29.15 in 6.2 mi South 16.1 mph 29.9 mph N/A   Scattered Clouds
3:50 AM 57.2 °F 53.6 °F 88% 29.15 in 6.2 mi South 15.0 mph 27.6 mph N/A Rain Light Rain Showers
4:50 AM 57.2 °F 55.4 °F 94% 29.15 in 3.1 mi SSE 19.6 mph 33.4 mph N/A Rain Light Rain Showers
5:50 AM 56 °F 54 °F 90% 29.13 in 6 mi South 18.4 mph - - Rain Light Rain Showers
5:50 AM 57.2 °F 53.6 °F 88% 29.12 in 6.2 mi South 18.4 mph 31.1 mph N/A   Overcast
6:50 AM 57.2 °F 53.6 °F 88% 29.12 in 6.2 mi South 16.1 mph 29.9 mph N/A   Mostly Cloudy
7:50 AM 57.2 °F 53.6 °F 88% 29.12 in 6.2 mi South 18.4 mph - N/A   Mostly Cloudy
8:50 AM 56 °F 53 °F 88% 29.13 in 3 mi South 25.3 mph - - Rain Heavy Rain Showers
8:50 AM 55.4 °F 53.6 °F 94% 29.12 in 3.1 mi South 25.3 mph 38.0 mph N/A Rain Rain Showers
9:50 AM 55.4 °F 53.6 °F 94% 29.12 in 6.2 mi South 19.6 mph - N/A   Mostly Cloudy
10:50 AM 59.0 °F 53.6 °F 82% 29.12 in 6.2 mi South 23.0 mph 38.0 mph N/A   Mostly Cloudy
11:50 AM 58 °F 54 °F 83% 29.13 in 6 mi South 19.6 mph - -   Haze
11:50 AM 57.2 °F 53.6 °F 88% 29.12 in 6.2 mi South 19.6 mph - N/A   Haze
12:50 PM 59.0 °F 53.6 °F 82% 29.12 in 6.2 mi South 16.1 mph 28.8 mph N/A   Haze
1:50 PM 59.0 °F 53.6 °F 82% 29.12 in 6.2 mi SSW 21.9 mph - N/A   Mostly Cloudy
2:50 PM 57.2 °F 53.6 °F 88% 29.12 in 6.2 mi South 16.1 mph - N/A   Haze
3:50 PM 57.2 °F 53.6 °F 88% 29.12 in 6.2 mi South 17.3 mph - N/A   Mostly Cloudy
4:50 PM 55.4 °F 53.6 °F 94% 29.15 in 5.0 mi South 15.0 mph - N/A   Haze
5:50 PM 55 °F 53 °F 92% 29.16 in 6 mi South 12.7 mph - -   Scattered Clouds
5:50 PM 55.4 °F 53.6 °F 94% 29.15 in 6.2 mi South 12.7 mph - N/A   Scattered Clouds
6:15 PM 55.4 °F 53.6 °F 94% 29.15 in 3.7 mi South 11.5 mph - N/A   Mostly Cloudy
6:50 PM 55.4 °F 53.6 °F 94% 29.15 in 5.0 mi South 11.5 mph - N/A   Mostly Cloudy
7:50 PM 53.6 °F 53.6 °F 100% 29.15 in 5.0 mi South 8.1 mph - N/A   Mostly Cloudy
8:50 PM 54 °F 53 °F 95% 29.16 in 6 mi SSW 9.2 mph - -   Partly Cloudy
8:50 PM 53.6 °F 53.6 °F 100% 29.15 in 6.2 mi SSW 9.2 mph - N/A   Scattered Clouds
9:50 PM 55.4 °F 53.6 °F 94% 29.15 in 6.2 mi South 6.9 mph - N/A   Mostly Cloudy
10:50 PM 55.4 °F 53.6 °F 94% 29.15 in 6.2 mi South 8.1 mph - N/A   Mostly Cloudy
11:50 PM 55 °F 54 °F 96% 29.18 in 6 mi South 6.9 mph - -   Overcast
11:50 PM 55.4 °F 53.6 °F 94% 29.18 in 6.2 mi South 6.9 mph - N/A   Overcast